Warroad, MN

5:13 AM CDT on August 19, 2017 (GMT -0500)
Warroad International-Carlson

Weather History for KRRT - November, 2012

Change the Weather History Date:

Saturday, November 10, 2012

  Actual Average Record
Temperature  
Mean Temperature 29 °F -  
Max Temperature 32 °F 34 °F 58 °F (1954)
Min Temperature 26 °F 18 °F -1 °F (1986)
Degree Days  
Heating Degree Days 36    
Moisture  
Dew Point 26 °F    
Average Humidity 86    
Maximum Humidity 93    
Minimum Humidity 69    
Precipitation  
Precipitation 0.10 in - - ()
Sea Level Pressure  
Sea Level Pressure 29.79 in    
Wind  
Wind Speed 17 mph (ENE)    
Max Wind Speed 22 mph    
Max Gust Speed 28 mph    
Visibility 4 miles    
Events Rain , Snow    
Averages and records for this station are not official NWS values.
T = Trace of Precipitation, MM = Missing Value Source: NWS Daily Summary

Daily Weather History Graph

Daily Weather History Graph

Search for Another Location

Airport or City:

Trip Planner

Search our weather history database for the weather conditions in past years. The results will help you decide how hot, cold, wet, or windy it might be!

Date:

Astronomy

Nov. 10, 2012 Rise Set
Actual Time 7:23 AM CST 4:46 PM CST
Civil Twilight 6:49 AM CST 5:20 PM CST
Nautical Twilight 6:11 AM CST 5:58 PM CST
Astronomical Twilight 5:34 AM CST 6:35 PM CST
Moon 3:12 AM CST (11/10) 2:48 PM CST (11/10)
Length of Visible Light 10h 31m
Length of Day
9h 22m
Waning Crescent, 14% of the Moon is Illuminated
Nov 10
Waning Crescent
Nov 13
New
Nov 20
First Quarter
Nov 28
Full
Dec 6
Last Quarter

Hourly Weather History & Observations

Time (CST) Temp. Windchill Dew Point Humidity Pressure Visibility Wind Dir Wind Speed Gust Speed Precip Events Conditions
12:13 AM 28.4 °F 15.8 °F 19.4 °F 69% 30.09 in 10.0 mi East 18.4 mph 24.2 mph N/A   Overcast
12:34 AM 28.4 °F 15.4 °F 19.4 °F 69% 30.08 in 10.0 mi East 19.6 mph - N/A   Overcast
12:54 AM 28.4 °F 16.2 °F 21.2 °F 74% 30.08 in 10.0 mi East 17.3 mph - N/A   Overcast
1:13 AM 28.4 °F 15.1 °F 21.2 °F 74% 30.06 in 10.0 mi East 20.7 mph 26.5 mph N/A   Overcast
1:34 AM 28.4 °F 15.4 °F 21.2 °F 74% 30.05 in 10.0 mi East 19.6 mph 25.3 mph N/A   Overcast
1:53 AM 28.4 °F 15.1 °F 21.2 °F 74% 30.05 in 10.0 mi East 20.7 mph 26.5 mph N/A   Overcast
2:14 AM 28.4 °F 15.4 °F 21.2 °F 74% 30.05 in 10.0 mi East 19.6 mph 24.2 mph N/A   Overcast
2:34 AM 28.4 °F 15.1 °F 23.0 °F 80% 30.04 in 4.0 mi East 20.7 mph 27.6 mph N/A   Light Freezing Rain
2:53 AM 28.4 °F 15.8 °F 23.0 °F 80% 30.02 in 3.0 mi East 18.4 mph 25.3 mph N/A Rain Light Freezing Rain
3:14 AM 28.4 °F 15.4 °F 23.0 °F 80% 30.02 in 5.0 mi East 19.6 mph 26.5 mph N/A   Light Freezing Rain
3:34 AM 28.4 °F 15.4 °F 24.8 °F 86% 30.01 in 3.0 mi East 19.6 mph 25.3 mph N/A   Light Freezing Rain
3:53 AM 28.4 °F 15.1 °F 24.8 °F 86% 29.99 in 3.0 mi ENE 20.7 mph 27.6 mph N/A   Light Freezing Rain
4:14 AM 28.4 °F 15.1 °F 24.8 °F 86% 29.97 in 5.0 mi ENE 20.7 mph 27.6 mph N/A   Light Freezing Rain
4:34 AM 28.4 °F 15.4 °F 24.8 °F 86% 29.97 in 10.0 mi ENE 19.6 mph 27.6 mph N/A   Overcast
4:53 AM 28.4 °F 15.4 °F 24.8 °F 86% 29.96 in 5.0 mi East 19.6 mph 27.6 mph N/A Snow Light Snow
5:14 AM 26.6 °F 13.1 °F 24.8 °F 93% 29.95 in 4.0 mi East 19.6 mph 27.6 mph N/A Snow Light Snow
5:34 AM 26.6 °F 12.4 °F 24.8 °F 93% 29.95 in 7.0 mi East 21.9 mph 26.5 mph N/A Rain Light Freezing Rain
6:34 AM 26.6 °F 14.3 °F 24.8 °F 93% 29.94 in 4.0 mi East 16.1 mph 20.7 mph N/A Snow Light Snow
6:53 AM 26.6 °F 13.1 °F 23.0 °F 86% 29.92 in 1.5 mi East 19.6 mph 24.2 mph 0.01 in Snow Light Snow
7:14 AM 26.6 °F 13.8 °F 23.0 °F 86% 29.92 in 3.0 mi East 17.3 mph 24.2 mph N/A Snow Light Snow
7:34 AM 28.4 °F 15.8 °F 24.8 °F 86% 29.91 in 3.0 mi East 18.4 mph 23.0 mph 0.01 in Rain Light Freezing Rain
7:53 AM 28.4 °F 15.8 °F 24.8 °F 86% 29.91 in 1.5 mi East 18.4 mph 23.0 mph 0.02 in Snow Light Snow
8:14 AM 28.4 °F 15.8 °F 24.8 °F 86% 29.89 in 4.0 mi East 18.4 mph 24.2 mph N/A Snow Light Snow
8:34 AM 28.4 °F 16.2 °F 24.8 °F 86% 29.89 in 2.5 mi East 17.3 mph 24.2 mph N/A   Light Freezing Rain
8:53 AM 28.4 °F 15.8 °F 24.8 °F 86% 29.88 in 2.0 mi East 18.4 mph 25.3 mph N/A   Light Freezing Rain
9:34 AM 28.4 °F 16.6 °F 24.8 °F 86% 29.86 in 2.0 mi East 16.1 mph - N/A   Light Freezing Rain
9:54 AM 28.4 °F 17.0 °F 24.8 °F 86% 29.85 in 1.8 mi East 15.0 mph 20.7 mph N/A   Light Freezing Rain
10:14 AM 28.4 °F 19.1 °F 24.8 °F 86% 29.86 in 2.0 mi East 10.4 mph - 0.01 in   Light Freezing Rain
10:34 AM 28.4 °F 17.5 °F 26.6 °F 93% 29.85 in 2.0 mi ENE 13.8 mph - 0.01 in   Light Freezing Rain
10:54 AM 28.4 °F 17.5 °F 26.6 °F 93% 29.84 in 2.0 mi ENE 13.8 mph - 0.01 in   Light Freezing Rain
11:14 AM 30.2 °F 19.8 °F 26.6 °F 86% 29.82 in 1.5 mi East 13.8 mph 19.6 mph N/A Rain Light Freezing Rain
11:34 AM 30.2 °F 19.3 °F 26.6 °F 86% 29.81 in 2.0 mi ENE 15.0 mph 18.4 mph N/A   Light Freezing Rain
11:54 AM 30.2 °F 19.8 °F 26.6 °F 86% 29.80 in 2.5 mi ENE 13.8 mph - N/A   Light Freezing Rain
12:14 PM 30.2 °F 19.8 °F 26.6 °F 86% 29.79 in 4.0 mi ENE 13.8 mph 19.6 mph N/A   Light Freezing Rain
12:34 PM 30.2 °F 19.8 °F 26.6 °F 86% 29.77 in 4.0 mi ENE 13.8 mph 19.6 mph N/A   Overcast
12:54 PM 30.2 °F 18.9 °F 26.6 °F 86% 29.75 in 2.5 mi ENE 16.1 mph 20.7 mph N/A   Overcast
1:14 PM 30.2 °F 18.9 °F 26.6 °F 86% 29.75 in 2.0 mi ENE 16.1 mph 19.6 mph N/A   Overcast
1:34 PM 30.2 °F 19.3 °F 26.6 °F 86% 29.73 in 2.5 mi ENE 15.0 mph - N/A   Light Freezing Rain
1:54 PM 30.2 °F 19.8 °F 26.6 °F 86% 29.72 in 2.5 mi ENE 13.8 mph 19.6 mph N/A   Overcast
2:14 PM 30.2 °F 18.9 °F 26.6 °F 86% 29.71 in 2.5 mi ENE 16.1 mph - N/A   Overcast
2:34 PM 30.2 °F 19.3 °F 26.6 °F 86% 29.70 in 2.5 mi ENE 15.0 mph - 0.01 in   Overcast
2:54 PM 30.2 °F 19.8 °F 26.6 °F 86% 29.69 in 2.5 mi ENE 13.8 mph 18.4 mph 0.01 in   Overcast
3:14 PM 30.2 °F 19.3 °F 28.4 °F 93% 29.68 in 2.0 mi ENE 15.0 mph - N/A   Overcast
3:34 PM 30.2 °F 19.3 °F 28.4 °F 93% 29.66 in 2.0 mi ENE 15.0 mph - N/A   Overcast
3:54 PM 30.2 °F 20.2 °F 28.4 °F 93% 29.67 in 2.5 mi ENE 12.7 mph - N/A   Overcast
4:14 PM 32.0 °F 22.1 °F 28.4 °F 87% 29.68 in 4.0 mi ENE 13.8 mph - N/A   Overcast
4:34 PM 32.0 °F 22.1 °F 28.4 °F 87% 29.66 in 2.5 mi ENE 13.8 mph 17.3 mph N/A   Drizzle
4:54 PM 32.0 °F 23.0 °F 28.4 °F 87% 29.66 in 3.0 mi ENE 11.5 mph - N/A   Light Drizzle
5:13 PM 30.2 °F 20.8 °F 28.4 °F 93% 29.65 in 3.0 mi ENE 11.5 mph 18.4 mph N/A   Light Freezing Rain
5:34 PM 30.2 °F 20.8 °F 28.4 °F 93% 29.65 in 3.0 mi ENE 11.5 mph - N/A   Light Freezing Rain
5:54 PM 32.0 °F 22.5 °F 28.4 °F 87% 29.64 in 3.0 mi ENE 12.7 mph - N/A   Light Drizzle
6:13 PM 32.0 °F 23.0 °F 28.4 °F 87% 29.63 in 3.0 mi ENE 11.5 mph - N/A   Drizzle
6:34 PM 32.0 °F 23.0 °F 28.4 °F 87% 29.62 in 5.0 mi ENE 11.5 mph 17.3 mph 0.01 in   Light Drizzle
6:54 PM 32.0 °F 23.0 °F 28.4 °F 87% 29.63 in 5.0 mi ENE 11.5 mph - 0.01 in   Drizzle
7:13 PM 32.0 °F 24.2 °F 28.4 °F 87% 29.62 in 5.0 mi ENE 9.2 mph - 0.01 in   Light Drizzle
7:34 PM 32.0 °F 23.6 °F 28.4 °F 87% 29.61 in 4.0 mi ENE 10.4 mph - 0.01 in   Overcast
7:54 PM 32.0 °F 24.8 °F 28.4 °F 87% 29.60 in 2.0 mi NE 8.1 mph - 0.01 in   Overcast
8:13 PM 32.0 °F 23.6 °F 28.4 °F 87% 29.58 in 2.5 mi NE 10.4 mph - 0.01 in   Drizzle
8:34 PM 32.0 °F 24.2 °F 28.4 °F 87% 29.59 in 2.5 mi NE 9.2 mph - 0.01 in   Drizzle
8:54 PM 32.0 °F 24.8 °F 28.4 °F 87% 29.58 in 2.5 mi NE 8.1 mph - 0.01 in   Drizzle
9:34 PM 32.0 °F 24.2 °F 28.4 °F 87% 29.54 in 2.5 mi NE 9.2 mph - 0.01 in   Drizzle
10:13 PM 32.0 °F 24.8 °F 28.4 °F 87% 29.51 in 3.0 mi NE 8.1 mph - N/A   Drizzle
10:34 PM 32.0 °F 24.8 °F 28.4 °F 87% 29.51 in 2.5 mi NE 8.1 mph - N/A   Drizzle
10:54 PM 32.0 °F 24.8 °F 28.4 °F 87% 29.51 in 2.5 mi NE 8.1 mph - N/A   Drizzle
11:13 PM 32.0 °F 24.8 °F 28.4 °F 87% 29.51 in 2.5 mi NE 8.1 mph - N/A   Drizzle
11:34 PM 32.0 °F 24.8 °F 28.4 °F 87% 29.49 in 2.5 mi NE 8.1 mph - 0.01 in   Drizzle
11:54 PM 32.0 °F 26.4 °F 28.4 °F 87% 29.48 in 2.5 mi NE 5.8 mph - 0.01 in   Heavy Drizzle